Regional Weather Roundup
Issued by NWS

Home | Current Version | Previous Version | Text Only | Print | Product List | Glossary Off
Versions: 1 2 3 4 5 6 7 8 9 10 11 12 13 14 15 16 17 18 19 20 21 22 23 24 25 26 27 28 29 30 31 32 33 34 35 36 37 38 39 40 41 42 43 44 45 46 47 48 49 50

000
ASUS45 KBOU 301410
RWRCO

WEATHER ROUNDUP FOR COLORADO
NATIONAL WEATHER SERVICE DENVER/BOULDER CO
800 AM MDT TUE JUN 30 2015

NOTE: "FAIR" INDICATES FEW OR NO CLOUDS BELOW 12000 FEET WITH NO
SIGNIFICANT WEATHER AND/OR OBSTRUCTIONS TO VISIBILITY.

COZ001>005-013-030-031-301500-
...NORTHWEST COLORADO...

CITY           SKY/WX    TMP DP  RH WIND       PRES   REMARKS
CRAIG          MOSUNNY   67  49  52 CALM      30.27R
HAYDEN         MOSUNNY   64  43  45 E14       30.28F
MEEKER         MOSUNNY   63  46  54 CALM      30.28S
MOUNT WERNER   NOT AVBL
STEAMBOAT SPGS MOSUNNY   58  45  62 CALM      30.32S
WALDEN         MOSUNNY   52  43  71 CALM      30.43R
$$

COZ006>008-011-301500-
...WEST CENTRAL VALLEYS...

CITY           SKY/WX    TMP DP  RH WIND       PRES   REMARKS
GRAND JUNCTION SUNNY     81  45  28 E12       30.14R
MONTROSE       SUNNY     70  48  45 S5        30.24S
EAGLE          MOSUNNY   61  46  59 CALM      30.36S
RIFLE          SUNNY     69  47  45 NE3       30.23S
DELTA          SUNNY     74  47  38 CALM      30.20S
NUCLA          SUNNY     70  45  40 E3        30.28S
$$

COZ017>023-064>068-301500-
...SOUTHWEST COLORADO...

CITY           SKY/WX    TMP DP  RH WIND       PRES   REMARKS
DURANGO        SUNNY     63  52  67 CALM      30.33R
CORTEZ         SUNNY     70  50  49 CALM      30.25R
PAGOSA SPRINGS SUNNY     63  45  52 CALM      30.42R
TELLURIDE      SUNNY     63  44  51 CALM      30.51S
WOLF CREEK PAS NOT AVBL
$$

COZ009-010-012-014-032>034-037-058>063-301500-
...CENTRAL COLORADO...

CITY           SKY/WX    TMP DP  RH WIND       PRES   REMARKS
ASPEN          SUNNY     62  45  53 VRB3      30.39F
BUENA VISTA    SUNNY     61  47  59 NW9       30.42S
COPPER MTN     NOT AVBL
BERTHOUD PASS  FAIR      46  37  71 MISG      30.76S
COTTONWOOD PAS NOT AVBL
GUNNISON       SUNNY     57  45  62 CALM      30.45F
KREMMLING      SUNNY     55  43  62 CALM      30.41F
LEADVILLE      MOSUNNY   55  43  63 CALM      30.55S
MONARCH PASS   SUNNY     50  39  66 SW12      30.80S
SALIDA         SUNNY     60  50  68 NW6       30.46F
SUNLIGHT       SUNNY     63  37  39 NW5       30.65R
WILKERSON PASS SUNNY     55  39  54 N8        30.67S
$$

COZ069>075-301500-
...SAN LUIS VALLEY/SANGRE DE CRISTO MOUNTAINS...

CITY           SKY/WX    TMP DP  RH WIND       PRES   REMARKS
ALAMOSA        SUNNY     60  46  59 S7        30.40R
LA VETA PASS   SUNNY     54  43  66 MISG      30.56S
SAGUACHE       SUNNY     59  46  63 NW14      30.42S
$$

COZ035-036-038>040-301500-
...NORTHERN COLORADO FRONT RANGE...

CITY           SKY/WX    TMP DP  RH WIND       PRES   REMARKS
DENVER INTL AP MOSUNNY   73  52  47 SW10      30.17F
DMNS CITY PARK   N/A     70  53  53 S5        30.18S
AURORA         PTSUNNY   71  53  54 SW9       30.21S
FRONT RANGE AP NOT AVBL
ERIE MUNI ARPT SUNNY     69  54  60 CALM      30.17S
BOULDER MUN AP SUNNY     72  48  43 CALM      30.17F
CENTENNIAL     MOSUNNY   71  52  50 SW8       30.21F
BROOMFIELD     MOSUNNY   70  52  52 CALM      30.20F
FORT COLLINS   SUNNY     66  55  68 CALM      30.17S
LONGMONT       SUNNY     75  53  46 CALM      30.17F
$$

COZ041-046-047-076>085-087-088-301500-
...PIKES PEAK/PALMER DIVIDE AND SOUTHERN FOOTHILLS...

CITY           SKY/WX    TMP DP  RH WIND       PRES   REMARKS
COLO. SPRINGS  MOSUNNY   72  55  55 NE5       30.25S
A. F. ACADEMY  SUNNY     67  53  61 CALM      30.27S
ELLICOTT       SUNNY    N/A N/A N/A CALM      30.24S
FALCON         SUNNY     71  49  45 CALM      30.31S
FORT CARSON    SUNNY     67  54  61 N8        30.22S
LIMON          SUNNY     70  58  65 CALM      30.19F
MONUMENT HILL  SUNNY     68  52  56 SW6       30.31S
TRINIDAD       SUNNY     69  51  52 CALM      30.25S
$$

COZ042>045-048>051-090-091-301500-
...NORTHEAST COLORADO...

CITY           SKY/WX    TMP DP  RH WIND       PRES   REMARKS
GREELEY ARPT   SUNNY     66  57  72 NW3       30.15S
AKRON          SUNNY     73  55  53 W14       30.13S
BURLINGTON     SUNNY     76  55  48 W6        30.12S
WRAY           SUNNY     73  59  60 W3        30.08S
STERLING       SUNNY     68  61  77 SW8       30.08F
HOLYOKE        SUNNY     75  61  60 W5        30.06F
FORT MORGAN    SUNNY     67  57  68 W9        30.13F
$$

COZ086-089-092>099-301500-
...SOUTHEAST COLORADO...

CITY           SKY/WX    TMP DP  RH WIND       PRES   REMARKS
PUEBLO         SUNNY     72  54  53 W7        30.16S
LA JUNTA       SUNNY     71  55  56 SW7       30.15R
LAMAR          SUNNY     70  58  65 CALM      30.11S
SPRINGFIELD      N/A     77  52  41 SW12G20   30.17S
$$



USA.gov is the U.S. government's official web portal to all federal, state and local government web resources and services.